Regional Weather Roundup
Issued by NWS

Home | Current Version | Previous Version | Graphics & Text | Print | Product List | Glossary On
Versions: 1 2 3 4 5 6 7 8 9 10 11 12 13 14 15 16 17 18 19 20 21 22 23 24 25 26 27 28 29 30 31 32 33 34 35 36 37 38 39 40 41 42 43 44 45 46 47 48 49 50
000
ASUS43 KLOT 102103
RWRIL

ILLINOIS REGIONAL WEATHER ROUNDUP
NATIONAL WEATHER SERVICE CHICAGO/ROMEOVILLE IL
300 PM CST WED FEB 10 2016

NOTE: "FAIR" INDICATES FEW OR NO CLOUDS BELOW 12,000 FEET WITH NO
SIGNIFICANT WEATHER AND/OR OBSTRUCTIONS TO VISIBILITY.

* THESE STATIONS ARE NOT UNDER NWS QUALITY CONTROL. THEY ALSO MAY NOT
  REPORT WEATHER SUCH AS PRECIPITATION OR FOG.

ILZ001-002-007-009-015-016-024-102200-
NORTHWEST ILLINOIS

CITY           SKY/WX    TMP DP  RH WIND       PRES   REMARKS
MOLINE         CLOUDY    19   2  47 NW9       30.07S WCI   8
STERLING*      SUNNY     19   3  49 NW10      30.03S WCI   8
$$

ILZ003-004-008-010-011-017-018-102200-
NORTH CENTRAL ILLINOIS

CITY           SKY/WX    TMP DP  RH WIND       PRES   REMARKS
ROCKFORD       PTSUNNY   17   2  51 NW12      30.05S WCI   4
FREEPORT*      SUNNY     15   2  57 W9        30.06R WCI   3
DE KALB*       SUNNY     15   3  59 NW9       30.02R WCI   4
$$

ILZ005-006-012>014-019>023-102200-
NORTHEAST ILLINOIS

CITY           SKY/WX    TMP DP  RH WIND       PRES   REMARKS
CHICAGO-OHARE  MOSUNNY   17   2  51 NW12      30.01S WCI   4
CHICAGO-MIDWAY PTSUNNY   19   2  47 W15       30.02S WCI   5
AURORA         MOSUNNY   17   5  59 NW8       30.03S WCI   7
LANSING*       PTSUNNY   19   4  54 W9        30.02R WCI   7
WAUKEGAN       CLOUDY    15   1  53 NW6       30.01R WCI   6
DUPAGE AIRPORT PTSUNNY   16   2  54 NW14G20   30.01R WCI   2
WHEELING       PTSUNNY   17   3  54 NW15      30.03R WCI   2
NORTHERLY ISL    N/A     19   2  47 NW6         N/A  WCI  11
$$

LMZ740>746-102200-
SOUTHERN LAKE MICHIGAN

STATION/POSITION SKY/WX   TEMP    WIND        PRES    VSBY  WAVE
                          AIR SEA DIR/SP/G                  HT/PER
                          (F)     (DEG/KT/KT) (MB)    (MI)  (FT/S)
HARRISON CRIB              17     310/ 10/ 13   N/A
BURNHAM HARBOR             19     280/ 10/ 14   N/A
CALUMET HARBOR             18     260/  5/ 10 1015.7R
BURNS HARBOR               17     290/ 10/ 17 1016.6S
MICHIGAN CITY              15     260/ 14/ 18   N/A
$$

ILZ025>027-034>036-040-047-049-050-058-095>099-102200-
WEST-CENTRAL ILLINOIS

CITY           SKY/WX    TMP DP  RH WIND       PRES   REMARKS
QUINCY         LGT SNOW  18  13  80 CALM      30.08S
MACOMB*        FLURRIES  19  12  76 NW5       30.10S WCI  12
$$

ILZ028>032-037-038-041>044-048-051>054-059>061-102200-
CENTRAL ILLINOIS

CITY           SKY/WX    TMP DP  RH WIND       PRES   REMARKS
BLOOMINGTON    PTSUNNY   20   5  52 NW12      30.05S WCI   8
DECATUR        CLOUDY    20   4  50 W14       30.08R WCI   7
PEORIA         CLOUDY    20   2  45 W10       30.07F WCI   9
LINCOLN*       CLOUDY    20   4  50 W7        30.08F WCI  12
SPRINGFIELD    CLOUDY    21   9  59 W8        30.09F WCI  11
TAYLORVILLE    NOT AVBL
$$

ILZ033-039-045-046-055>057-062-063-102200-
EAST-CENTRAL ILLINOIS

CITY           SKY/WX    TMP DP  RH WIND       PRES   REMARKS
CHAMPAIGN      MOSUNNY   20   8  60 W15       30.06R WCI   6
MATTOON        MOSUNNY   19   7  59 W9        30.08R WCI   8
$$

ILZ079-100>102-102200-
SOUTHWEST ILLINOIS

CITY           SKY/WX    TMP DP  RH WIND       PRES   REMARKS
ALTON          LGT SNOW  19  16  86 SW6       30.12S VSB 1   WCI  11
BELLEVILLE     LGT SNOW  21  17  86 SW7       30.13R FOG     WCI  12
CAHOKIA*       LGT SNOW  21  15  78 SW5       30.14S WCI  15
SPARTA*        LGT SNOW  20  16  86 SW3       30.14F
$$

ILZ064>066-069>071-074>076-080>082-084>086-088>090-092>094-102200-
SOUTH-CENTRAL ILLINOIS

CITY           SKY/WX    TMP DP  RH WIND       PRES   REMARKS
CARBONDALE     SNOW      21  16  81 SW5       30.16S VSB 1/2 WCI  15
MARION         CLOUDY    21  16  79 W9        30.16F VSB 1   WCI  11
MT. VERNON     CLOUDY    21   9  58 SW10      30.13S WCI  10
CENTRALIA*     LGT SNOW  22  17  81 W6        30.12S WCI  14
SALEM*         LGT SNOW  22  13  69 W10       30.12S WCI  11
$$

ILZ067-068-072-073-078-083-087-091-102200-
SOUTHEAST ILLINOIS

CITY           SKY/WX    TMP DP  RH WIND       PRES   REMARKS
LAWRENCEVILLE  CLOUDY    22   9  57 W12       30.12S WCI  10
HARRISBURG*    FLURRIES  24  12  59 W7        30.15S WCI  16
$$

ABBREVIATIONS USED IN REMARKS
   TC - TEMPERATURE IN CELSIUS
  WCI - WIND CHILL INDEX
   HX - HEAT INDEX
  VSB - VISIBILITY
$$




USA.gov is the U.S. government's official web portal to all federal, state and local government web resources and services.